1520762400.82,206,11.31,72888.8,8.11,-21.67,-22.63,0,*76
1520762402.07,207,11.31,72892.5,8.11,-21.53,-22.27,0,*70
1520762403.31,208,11.31,72898.8,8.11,-21.53,-22.53,0,*7C
1520762404.55,209,11.31,72898.0,8.11,-21.03,-21.73,0,*79
1520762405.75,210,11.31,72892.3,8.09,-20.43,-21.17,0,*7F
1520762406.97,211,11.31,72898.8,8.09,-20.15,-20.89,0,*7B
1520762408.18,212,11.31,72902.3,8.09,-19.81,-20.59,0,*72
1520762409.37,213,11.31,72900.8,8.09,-19.95,-20.73,0,*7E
1520762410.58,214,11.31,72900.0,8.11,-20.73,-21.39,0,*7D
1520762411.81,215,11.31,72902.5,8.11,-19.71,-20.43,0,*78
1520762413.05,216,11.31,72900.0,8.11,-19.23,-19.95,0,*7D
1520762414.24,217,11.31,72902.5,8.15,-18.83,-19.51,0,*7B
1520762415.49,218,11.31,72896.8,8.17,-19.71,-20.49,0,*79
1520762416.73,219,11.31,72902.0,8.17,-21.13,-21.87,0,*74
1520762417.95,220,11.31,72896.5,8.15,-20.59,-21.33,0,*7C
1520762419.19,221,11.31,72896.3,8.17,-20.15,-20.93,0,*7C
1520762420.42,222,11.31,72902.3,8.17,-20.35,-21.13,0,*74
1520762421.65,223,11.31,72896.8,8.17,-20.35,-21.09,0,*7E
1520762422.83,224,11.31,72900.5,8.15,-20.69,-21.47,0,*78
1520762424.04,225,11.31,72900.0,8.15,-20.73,-21.53,0,*77
1520762425.24,226,11.31,72900.5,8.15,-20.29,-21.03,0,*7E
1520762426.43,227,11.31,72902.5,8.15,-20.39,-21.13,0,*7F
1520762427.63,228,11.31,72900.5,8.15,-20.25,-21.03,0,*7C
1520762428.84,229,11.31,72906.8,8.15,-19.81,-20.59,0,*77
1520762430.04,230,11.31,72902.0,8.15,-20.29,-21.03,0,*79
1520762431.23,231,11.31,72900.0,8.15,-20.69,-21.39,0,*75
1520762432.43,232,11.31,72900.5,8.15,-20.73,-21.53,0,*71
1520762433.65,233,11.31,72898.8,8.15,-20.53,-21.39,0,*7E
1520762434.87,234,11.31,72902.8,8.17,-19.47,-20.25,0,*78
1520762436.05,235,11.31,72902.3,8.15,-20.05,-20.69,0,*7F
1520762437.24,236,11.31,72896.5,8.15,-20.43,-21.17,0,*76
1520762438.46,237,11.31,72900.5,8.11,-20.59,-21.39,0,*74
1520762439.66,238,11.31,72900.5,8.15,-18.89,-19.51,0,*7C
1520762440.91,239,11.31,72904.0,8.17,-18.79,-19.61,0,*73
1520762442.12,240,11.31,72900.0,8.17,-20.93,-21.73,0,*7A
1520762443.37,241,11.31,72894.8,8.17,-19.57,-20.25,0,*7B
1520762444.58,242,11.31,72894.0,8.17,-18.41,-19.07,0,*74
1520762445.76,243,11.31,72892.0,8.19,-18.21,-18.99,0,*7B
1520762447.02,244,11.31,72898.5,8.21,-18.89,-19.65,0,*77
1520762448.25,245,11.31,72894.5,8.21,-20.09,-20.79,0,*72
1520762449.46,246,11.31,72896.0,8.21,-19.99,-20.73,0,*78
1520762450.69,247,11.31,72894.8,8.21,-20.09,-20.79,0,*70
1520762451.91,248,11.25,72894.8,8.21,-19.95,-20.73,0,*7A
1520762453.18,249,11.31,72906.5,8.21,-21.67,-22.47,0,*78
1520762454.39,250,11.31,72904.5,8.21,-20.09,-20.73,0,*7C
1520762455.63,251,11.31,72906.3,8.21,-19.85,-20.73,0,*73
1520762456.84,252,11.31,72906.8,8.21,-19.37,-19.99,0,*77
1520762458.06,253,11.31,72906.8,8.19,-18.79,-19.31,0,*74
1520762459.27,254,11.31,72906.0,8.19,-19.91,-20.79,0,*72
1520762460.48,255,11.31,72906.0,8.21,-20.29,-20.93,0,*75
1520762461.71,256,11.31,72902.0,8.23,-20.35,-21.03,0,*71
1520762462.97,257,11.31,72902.8,8.21,-19.41,-20.15,0,*7D
1520762464.18,258,11.31,72898.3,8.21,-18.79,-19.51,0,*72
1520762465.37,259,11.31,72902.5,8.23,-19.51,-20.43,0,*73
1520762466.59,260,11.31,72906.8,8.23,-19.17,-19.85,0,*7B
1520762467.8,261,11.31,72900.0,8.21,-20.59,-21.39,0,*74
1520762469.04,262,11.31,72906.0,8.21,-20.89,-21.67,0,*71
1520762470.26,263,11.31,72900.5,8.21,-19.95,-20.63,0,*72
1520762471.51,264,11.31,72902.8,8.21,-20.43,-21.27,0,*75
1520762472.72,265,11.31,72900.3,8.21,-20.29,-20.93,0,*76
1520762473.92,266,11.31,72902.0,8.21,-20.63,-21.43,0,*77
1520762475.13,267,11.31,72902.0,8.21,-21.09,-21.73,0,*78
1520762476.34,268,11.31,72900.3,8.19,-20.19,-20.93,0,*73
1520762477.56,269,11.31,72898.0,8.19,-20.19,-20.93,0,*72
1520762478.82,270,11.31,72896.8,8.17,-20.19,-20.99,0,*7E
1520762480.03,271,11.31,72900.8,8.19,-20.35,-21.13,0,*7C
1520762481.24,272,11.31,72904.3,8.19,-20.05,-20.79,0,*71
1520762482.46,273,11.31,72904.3,8.19,-19.41,-20.25,0,*73
1520762483.65,274,11.31,72904.3,8.19,-19.91,-20.69,0,*71
1520762484.87,275,11.31,72904.8,8.19,-19.91,-20.53,0,*79
1520762486.11,276,11.31,72906.8,8.19,-19.31,-20.15,0,*72
1520762487.32,277,11.31,72910.8,8.21,-20.09,-20.63,0,*78
1520762488.58,278,11.31,72908.0,8.21,-19.65,-20.35,0,*74
1520762489.84,279,11.31,72908.8,8.21,-20.19,-21.03,0,*70
1520762491.06,280,11.31,72908.8,8.21,-18.65,-19.37,0,*7A
1520762492.29,281,11.31,72908.0,8.21,-18.25,-18.89,0,*7B
1520762493.5,282,11.31,72906.8,8.23,-19.23,-20.29,0,*7C
1520762494.73,283,11.31,72910.3,8.23,-20.15,-21.03,0,*7B
1520762495.91,284,11.31,72904.5,8.23,-20.63,-21.43,0,*79
1520762497.14,285,11.31,72902.8,8.23,-19.41,-20.15,0,*70
1520762498.36,286,11.31,72900.3,8.23,-19.17,-19.81,0,*77
1520762499.59,287,11.31,72900.8,8.23,-19.65,-20.35,0,*76
1520762500.81,288,11.31,72900.8,8.25,-19.75,-20.43,0,*7F
1520762502.02,289,11.31,72904.0,8.25,-20.39,-21.09,0,*73
1520762503.29,290,11.31,72900.5,8.25,-20.99,-21.67,0,*79
1520762504.49,291,11.31,72898.8,8.25,-20.73,-21.47,0,*7E
1520762505.71,292,11.31,72900.3,8.25,-20.05,-20.59,0,*72
1520762506.94,293,11.31,72896.3,8.27,-19.41,-20.19,0,*7F
1520762508.2,294,11.31,72900.0,8.25,-20.15,-20.99,0,*79
1520762509.39,295,11.31,72898.3,8.23,-20.43,-21.17,0,*7A
1520762510.61,296,11.31,72898.5,8.23,-20.59,-21.27,0,*71
1520762511.88,297,11.31,72896.5,8.25,-20.53,-21.23,0,*78
1520762513.1,298,11.31,72896.5,8.23,-20.19,-20.89,0,*7E
1520762514.29,299,11.31,72896.5,8.23,-19.37,-20.09,0,*71
1520762515.5,300,11.25,72892.0,8.23,-20.19,-20.89,0,*7E
1520762516.74,301,11.31,72894.3,8.23,-19.81,-20.49,0,*78
1520762517.94,302,11.31,72894.5,8.23,-20.79,-21.43,0,*7D
1520762519.18,303,11.31,72894.3,8.25,-20.59,-21.33,0,*7F
1520762520.43,304,11.25,72890.8,8.21,-20.59,-21.23,0,*7D
1520762521.64,305,11.31,72894.0,8.23,-20.19,-20.93,0,*70
1520762522.82,306,11.31,72892.0,8.23,-20.09,-20.73,0,*7C
1520762524.05,307,11.31,72896.8,8.23,-20.19,-21.03,0,*7A
1520762525.26,308,11.25,72888.8,8.21,-20.29,-21.17,0,*71
1520762526.5,309,11.31,72894.3,8.21,-20.19,-20.89,0,*75
1520762527.71,310,11.31,72896.0,8.23,-20.73,-21.67,0,*72
1520762528.95,311,11.31,72892.0,8.21,-21.73,-22.47,0,*71
1520762530.2,312,11.31,72894.0,8.21,-20.59,-21.27,0,*7E
1520762531.38,313,11.31,72896.8,8.19,-20.93,-21.73,0,*73
1520762532.62,314,11.31,72894.0,8.19,-21.27,-22.21,0,*7E
1520762533.86,315,11.31,72896.0,8.17,-20.83,-21.63,0,*7B
1520762535.08,316,11.31,72898.5,8.19,-20.19,-20.93,0,*7B
1520762536.32,317,11.31,72900.0,8.17,-19.71,-20.53,0,*7C
1520762537.51,318,11.31,72900.3,8.19,-20.69,-21.47,0,*7A
1520762538.73,319,11.31,72902.0,8.19,-21.23,-22.03,0,*77
1520762539.95,320,11.31,72898.0,8.17,-21.13,-21.93,0,*7A
1520762541.19,321,11.31,72900.3,8.19,-20.79,-21.27,0,*77
1520762542.44,322,11.31,72898.8,8.17,-19.47,-20.19,0,*71
1520762543.66,323,11.31,72898.8,8.19,-19.57,-20.25,0,*70
1520762544.9,324,11.25,72898.3,8.19,-20.19,-20.99,0,*70
1520762546.14,325,11.31,72900.0,8.17,-20.79,-21.47,0,*7B
1520762547.41,326,11.31,72900.0,8.17,-19.41,-20.19,0,*73
1520762548.63,327,11.31,72900.0,8.19,-19.27,-19.99,0,*7E
1520762549.83,328,11.31,72902.8,8.19,-19.47,-20.25,0,*7A
1520762551.07,329,11.25,72896.5,8.21,-19.07,-19.81,0,*70
1520762552.27,330,11.31,72900.0,8.23,-19.81,-20.43,0,*70
1520762553.5,331,11.31,72900.0,8.23,-20.15,-20.79,0,*7F
1520762554.71,332,11.31,72902.0,8.23,-19.17,-19.85,0,*7D
1520762555.94,333,11.31,72906.5,8.23,-19.41,-20.15,0,*7C
1520762557.12,334,11.25,72902.3,8.23,-20.09,-20.73,0,*7D
1520762558.34,335,11.31,72904.0,8.23,-19.51,-20.19,0,*77
1520762559.54,336,11.31,72906.0,8.23,-20.09,-20.79,0,*75
1520762560.77,337,11.31,72902.3,8.23,-19.41,-20.15,0,*78
1520762561.99,338,11.31,72908.3,8.25,-19.75,-20.59,0,*7E
1520762563.2,339,11.25,72902.0,8.25,-19.95,-20.69,0,*72
1520762564.42,340,11.31,72906.3,8.23,-20.15,-20.89,0,*76
1520762565.62,341,11.31,72904.0,8.23,-20.29,-21.03,0,*7B
1520762566.84,342,11.31,72904.0,8.25,-19.17,-19.75,0,*73
1520762568.08,343,11.31,72902.8,8.25,-19.31,-20.09,0,*77
1520762569.27,344,11.31,72904.8,8.27,-19.17,-19.91,0,*7D
1520762570.45,345,11.31,72904.5,8.27,-20.09,-20.93,0,*71
1520762571.64,346,11.25,72904.8,8.27,-20.09,-20.93,0,*72
1520762572.87,347,11.31,72906.0,8.25,-18.59,-19.17,0,*79
1520762574.09,348,11.31,72908.0,8.27,-18.83,-19.57,0,*77
1520762575.34,349,11.25,72902.0,8.29,-19.57,-20.39,0,*72
1520762576.58,350,11.31,72906.3,8.29,-20.49,-21.09,0,*7D
1520762577.79,351,11.25,72902.0,8.31,-19.65,-20.29,0,*72
1520762579.01,352,11.31,72902.5,8.29,-19.71,-20.25,0,*71
1520762580.26,353,11.25,72904.3,8.29,-19.13,-19.85,0,*74
1520762581.48,354,11.31,72906.3,8.31,-19.31,-19.99,0,*77
1520762582.71,355,11.25,72908.8,8.31,-18.93,-19.65,0,*7C
1520762583.93,356,11.31,72910.8,8.31,-19.51,-20.19,0,*71
1520762585.2,357,11.31,72914.8,8.29,-19.57,-19.85,0,*70
1520762586.45,358,11.31,72910.5,8.33,-19.27,-20.05,0,*71
1520762587.69,359,11.31,72914.5,8.33,-18.73,-19.57,0,*7D
1520762588.91,360,11.25,72914.0,8.35,-19.03,-19.65,0,*76
1520762590.12,361,11.31,72916.3,8.35,-19.03,-19.61,0,*73
1520762591.33,362,11.31,72914.0,8.39,-19.75,-20.53,0,*76
1520762592.52,363,11.31,72910.5,8.39,-19.95,-20.69,0,*70
1520762593.74,364,11.31,72908.3,8.35,-19.61,-20.39,0,*75
1520762594.93,365,11.31,72904.3,8.35,-19.47,-20.09,0,*73
1520762596.15,366,11.25,72904.8,8.35,-19.91,-20.53,0,*74
1520762597.34,367,11.25,72904.5,8.39,-18.99,-19.71,0,*7A
1520762598.54,368,11.25,72906.0,8.39,-18.35,-19.03,0,*76
1520762599.78,369,11.25,72906.8,8.45,-18.59,-19.23,0,*74
1520762601.02,370,11.31,72908.3,8.45,-18.55,-19.23,0,*70
1520762602.28,371,11.25,72906.5,8.41,-18.55,-19.27,0,*71
1520762603.49,372,11.25,72910.5,8.47,-18.41,-19.03,0,*77
1520762604.74,373,11.31,72910.8,8.47,-19.07,-19.65,0,*75
1520762605.92,374,11.31,72910.5,8.49,-18.25,-18.99,0,*7F
1520762607.14,375,11.25,72908.8,8.51,-17.83,-18.45,0,*75
1520762608.36,376,11.25,72910.5,8.53,-17.93,-18.65,0,*77
1520762609.6,377,11.25,72906.5,8.51,-19.85,-20.63,0,*70
1520762610.84,378,11.31,72910.5,8.51,-20.63,-21.27,0,*7C
1520762612.06,379,11.31,72906.3,8.49,-20.83,-21.47,0,*7C
1520762613.27,380,11.31,72908.3,8.49,-20.63,-21.33,0,*77
1520762614.51,381,11.25,72904.8,8.47,-20.09,-20.83,0,*7E
1520762615.77,382,11.25,72906.3,8.47,-20.59,-21.23,0,*73
1520762616.97,383,11.31,72904.5,8.45,-20.25,-20.89,0,*7A
1520762618.19,384,11.25,72904.3,8.47,-19.47,-19.99,0,*7A
1520762619.41,385,11.25,72902.3,8.45,-18.93,-19.51,0,*75
1520762620.6,386,11.25,72900.8,8.49,-19.17,-19.75,0,*71
1520762621.82,387,11.31,72908.5,8.51,-18.99,-19.71,0,*7A
1520762623.04,388,11.31,72900.3,8.51,-19.91,-20.63,0,*75
1520762624.26,389,11.31,72906.0,8.49,-19.31,-19.95,0,*74
1520762625.48,390,11.25,72900.8,8.49,-19.41,-20.05,0,*78
1520762626.71,391,11.31,72902.0,8.49,-19.61,-20.25,0,*79
1520762627.97,392,11.25,72898.5,8.51,-20.15,-20.83,0,*76
1520762629.19,393,11.25,72896.8,8.51,-19.99,-20.59,0,*7E
1520762630.41,394,11.31,72900.0,8.49,-19.57,-20.25,0,*79
1520762631.63,395,11.31,72896.5,8.49,-19.41,-20.09,0,*71
1520762632.87,396,11.25,72896.5,8.51,-18.99,-19.65,0,*7F
1520762634.1,397,11.31,72898.3,8.51,-20.05,-20.79,0,*77
1520762635.31,398,11.31,72902.0,8.51,-20.73,-21.43,0,*71
1520762636.53,399,11.31,72902.3,8.49,-21.67,-22.41,0,*7C
1520762637.74,400,11.31,72902.3,8.49,-21.33,-22.11,0,*7F
1520762639.01,401,11.25,72898.8,8.47,-21.33,-22.17,0,*76
1520762640.26,402,11.31,72898.0,8.47,-21.03,-21.77,0,*73
1520762641.49,403,11.31,72896.5,8.45,-20.43,-21.23,0,*74
1520762642.71,404,11.25,72896.8,8.45,-20.15,-20.89,0,*71
1520762643.93,405,11.25,72898.3,8.47,-20.09,-20.89,0,*7F
1520762645.17,406,11.31,72900.3,8.47,-20.09,-20.83,0,*76
1520762646.43,407,11.25,72898.8,8.47,-20.59,-21.23,0,*79
1520762647.62,408,11.25,72896.5,8.45,-20.43,-21.09,0,*77
1520762648.89,409,11.25,72894.3,8.41,-20.53,-21.27,0,*7F
1520762650.13,410,11.31,72892.8,8.41,-20.39,-20.99,0,*7F
1520762651.36,411,11.25,72894.5,8.39,-20.19,-20.83,0,*78
1520762652.59,412,11.25,72896.5,8.45,-19.65,-20.39,0,*70
1520762653.84,413,11.25,72892.3,8.45,-18.93,-19.65,0,*7A
1520762655.07,414,11.25,72892.3,8.45,-19.65,-20.25,0,*7B
1520762656.27,415,11.25,72896.5,8.45,-20.43,-21.17,0,*74
1520762657.49,416,11.25,72898.0,8.45,-20.83,-21.39,0,*77
1520762658.68,417,11.31,72894.3,8.45,-21.39,-22.11,0,*7F
1520762659.87,418,11.25,72890.5,8.39,-21.13,-21.77,0,*70
1520762661.1,419,11.25,72894.3,8.41,-21.43,-22.21,0,*7B
1520762662.34,420,11.25,72892.5,8.41,-20.49,-21.17,0,*7C
1520762663.56,421,11.25,72894.5,8.41,-20.39,-21.13,0,*7E
1520762664.79,422,11.25,72892.3,8.39,-20.83,-21.33,0,*71
1520762666.0,423,11.25,72896.8,8.39,-20.25,-20.99,0,*7D
1520762667.2,424,11.25,72894.8,8.39,-20.79,-21.43,0,*75
1520762668.39,425,11.25,72898.0,8.39,-20.93,-21.47,0,*74
1520762669.6,426,11.25,72898.0,8.39,-20.53,-21.17,0,*7E
1520762670.8,427,11.25,72896.8,8.35,-19.95,-20.59,0,*78
1520762672.02,428,11.25,72898.3,8.35,-19.61,-20.29,0,*7B
1520762673.2,429,11.25,72894.5,8.39,-20.05,-20.63,0,*70
1520762674.39,430,11.25,72896.3,8.39,-20.39,-20.93,0,*78
1520762675.58,431,11.25,72900.3,8.39,-19.91,-20.63,0,*7E
1520762676.8,432,11.25,72898.5,8.35,-19.65,-20.25,0,*78
1520762678.03,433,11.31,72898.3,8.39,-20.79,-21.33,0,*74
1520762679.23,434,11.25,72896.0,8.39,-20.09,-20.83,0,*7E
1520762680.42,435,11.31,72902.8,8.39,-20.63,-21.17,0,*7F
1520762681.63,436,11.25,72902.3,8.39,-21.47,-22.21,0,*7D
1520762682.84,437,11.25,72898.5,8.35,-21.27,-22.03,0,*76
1520762684.06,438,11.25,72902.8,8.35,-21.03,-21.77,0,*7F
1520762685.29,439,11.25,72900.5,8.33,-21.39,-21.97,0,*7F
1520762686.52,440,11.31,72904.8,8.35,-21.33,-21.97,0,*7D
1520762687.76,441,11.25,72898.5,8.33,-21.09,-21.67,0,*7C
1520762688.98,442,11.25,72902.8,8.29,-20.63,-21.17,0,*7E
1520762690.21,443,11.25,72898.8,8.31,-19.41,-20.15,0,*7F
1520762691.42,444,11.31,72904.5,8.35,-19.65,-20.29,0,*75
1520762692.64,445,11.25,72904.5,8.33,-20.59,-21.13,0,*7F
1520762693.9,446,11.25,72902.0,8.33,-20.35,-21.03,0,*77
1520762695.11,447,11.25,72898.5,8.33,-20.05,-20.73,0,*73
1520762696.33,448,11.25,72900.5,8.33,-19.99,-20.43,0,*70
1520762697.54,449,11.31,72902.8,8.35,-20.43,-21.03,0,*7F
1520762698.75,450,11.25,72900.8,8.33,-20.05,-20.73,0,*75
1520762699.97,451,11.25,72902.8,8.35,-19.31,-19.91,0,*79
1520762701.19,452,11.31,72902.5,8.35,-19.31,-20.09,0,*71
1520762702.41,453,11.25,72900.8,8.35,-19.57,-19.95,0,*7F
1520762703.61,454,11.25,72898.5,8.35,-20.25,-20.89,0,*70
1520762704.8,455,11.25,72898.8,8.35,-19.75,-20.29,0,*74
1520762705.99,456,11.25,72900.3,8.35,-19.95,-20.69,0,*7D
1520762707.18,457,11.25,72900.8,8.35,-19.37,-19.99,0,*71
1520762708.42,458,11.25,72896.0,8.39,-19.41,-20.19,0,*71
1520762709.61,459,11.25,72896.5,8.39,-19.17,-19.75,0,*73
1520762710.83,460,11.31,72906.0,8.45,-18.93,-19.51,0,*79
1520762712.04,461,11.25,72902.3,8.41,-18.99,-19.71,0,*74
1520762713.31,462,11.25,72900.5,8.47,-19.23,-19.85,0,*7A
1520762714.53,463,11.25,72900.3,8.47,-19.03,-19.51,0,*70
1520762715.77,464,11.25,72902.3,8.47,-18.59,-19.17,0,*7B
1520762717.01,465,11.25,72900.5,8.49,-18.89,-19.57,0,*7D
1520762718.22,466,11.25,72900.5,8.49,-18.89,-19.47,0,*7F
1520762719.45,467,11.25,72904.5,8.49,-19.31,-20.05,0,*70
1520762720.67,468,11.25,72902.3,8.49,-19.57,-20.05,0,*7F
1520762721.88,469,11.25,72904.0,8.49,-20.05,-20.53,0,*70
1520762723.13,470,11.31,72904.5,8.49,-19.31,-19.81,0,*70
1520762724.35,471,11.25,72910.0,8.49,-19.31,-20.09,0,*7B
1520762725.57,472,11.25,72910.0,8.53,-18.73,-19.27,0,*72
1520762726.79,473,11.25,72906.8,8.53,-17.87,-18.35,0,*75
1520762727.98,474,11.25,72908.3,8.53,-20.05,-20.73,0,*75
1520762729.18,475,11.25,72906.3,8.53,-19.51,-20.05,0,*7E
1520762730.44,476,11.25,72904.8,8.55,-18.89,-19.61,0,*77
1520762731.71,477,11.25,72906.3,8.55,-18.31,-18.93,0,*79
1520762732.95,478,11.25,72902.8,8.55,-19.17,-19.81,0,*71
1520762734.19,479,11.25,72900.0,8.55,-20.15,-20.73,0,*7F
1520762735.4,480,11.25,72904.8,8.55,-19.07,-19.71,0,*78
1520762736.62,481,11.25,72904.8,8.57,-19.23,-19.71,0,*7D
1520762737.86,482,11.25,72906.0,8.55,-18.89,-19.47,0,*78
1520762739.1,483,11.31,72910.3,8.55,-19.65,-20.09,0,*7A
1520762740.31,484,11.31,72910.0,8.59,-18.65,-19.03,0,*70
1520762741.53,485,11.25,72904.5,8.57,-19.95,-20.53,0,*7E
1520762742.74,486,11.25,72906.3,8.57,-20.25,-20.79,0,*74
1520762743.98,487,11.25,72910.3,8.57,-19.81,-20.53,0,*79
1520762745.18,488,11.25,72910.5,8.57,-19.95,-20.43,0,*72
1520762746.39,489,11.25,72912.0,8.57,-20.25,-20.79,0,*7B
1520762747.6,490,11.25,72908.5,8.57,-18.89,-19.37,0,*7E
1520762748.84,491,11.25,72910.8,8.59,-18.55,-18.99,0,*75
1520762750.05,492,11.25,72910.5,8.59,-18.49,-19.03,0,*79
1520762751.27,493,11.25,72910.0,8.59,-19.47,-20.25,0,*79
1520762752.52,494,11.25,72910.3,8.59,-19.65,-20.25,0,*7E
1520762753.76,495,11.25,72910.5,8.57,-21.03,-21.53,0,*7A
1520762755.01,496,11.25,72912.3,8.59,-20.19,-20.89,0,*7B
1520762756.2,497,11.25,72908.8,8.57,-20.29,-20.89,0,*77
1520762757.39,498,11.25,72914.5,8.57,-19.51,-20.09,0,*75
1520762758.6,499,11.25,72914.0,8.59,-18.41,-18.83,0,*73
1520762759.86,500,11.25,72908.3,8.59,-18.99,-19.57,0,*7F
1520762761.11,501,11.25,72912.0,8.59,-19.31,-19.95,0,*73
1520762762.34,502,11.25,72912.3,8.59,-18.89,-19.47,0,*7D
1520762763.57,503,11.25,72908.5,8.63,-19.13,-19.71,0,*72
1520762764.78,504,11.25,72906.5,8.65,-19.75,-20.35,0,*79
1520762766.03,505,11.25,72908.8,8.63,-18.93,-19.51,0,*7F
1520762767.27,506,11.25,72910.8,8.65,-18.93,-19.41,0,*7B
1520762768.49,507,11.31,72910.3,8.65,-19.75,-20.35,0,*7A
1520762769.69,508,11.25,72904.0,8.65,-19.51,-19.99,0,*7F
1520762770.94,509,11.25,72908.8,8.67,-19.37,-19.85,0,*71
1520762772.13,510,11.25,72904.5,8.65,-19.07,-19.71,0,*73
1520762773.38,511,11.25,72904.3,8.67,-19.99,-20.53,0,*7D
1520762774.6,512,11.25,72906.5,8.67,-19.95,-20.43,0,*73
1520762775.82,513,11.25,72906.3,8.65,-19.23,-19.71,0,*76
1520762777.06,514,11.25,72902.5,8.67,-18.89,-19.51,0,*70
1520762778.27,515,11.25,72908.8,8.67,-19.03,-19.47,0,*75
1520762779.49,516,11.25,72906.5,8.69,-18.65,-19.23,0,*7B
1520762780.71,517,11.25,72908.8,8.69,-19.51,-20.15,0,*73
1520762781.9,518,11.25,72908.8,8.69,-19.47,-19.95,0,*79
1520762783.13,519,11.25,72908.3,8.69,-19.07,-19.57,0,*72
1520762784.4,520,11.25,72910.5,8.67,-19.31,-19.81,0,*78
1520762785.63,521,11.25,72910.5,8.69,-19.07,-19.57,0,*79
1520762786.84,522,11.25,72910.5,8.73,-18.93,-19.47,0,*7C
1520762788.08,523,11.25,72908.0,8.71,-20.25,-20.83,0,*7B
1520762789.29,524,11.31,72912.3,8.69,-21.33,-22.03,0,*79
1520762790.52,525,11.25,72910.3,8.71,-20.39,-20.89,0,*7A
1520762791.71,526,11.25,72904.8,8.69,-20.29,-20.89,0,*71
1520762792.92,527,11.25,72902.8,8.69,-18.59,-19.07,0,*70
1520762794.12,528,11.25,72902.8,8.69,-18.73,-19.17,0,*76
1520762795.36,529,11.25,72902.3,8.71,-18.99,-19.61,0,*7B
1520762796.62,530,11.25,72902.0,8.71,-20.35,-20.99,0,*73
1520762797.88,531,11.25,72898.5,8.71,-20.99,-21.53,0,*73
1520762799.12,532,11.25,72900.5,8.71,-21.83,-22.53,0,*79
1520762800.39,533,11.25,72896.3,8.67,-22.77,-23.53,0,*76
1520762801.6,534,11.25,72894.3,8.63,-22.07,-22.83,0,*7E
1520762802.81,535,11.25,72896.3,8.63,-22.07,-22.83,0,*7F
1520762804.05,536,11.25,72900.8,8.59,-20.39,-20.99,0,*73
1520762805.3,537,11.25,72900.5,8.59,-20.09,-20.53,0,*77
1520762806.56,538,11.25,72898.3,8.63,-19.41,-20.15,0,*75
1520762807.81,539,11.25,72896.5,8.63,-20.59,-21.27,0,*77
1520762809.05,540,11.25,72898.3,8.63,-20.83,-21.43,0,*7C
1520762810.26,541,11.25,72898.5,8.59,-20.25,-20.73,0,*7A
1520762811.5,542,11.25,72896.0,8.63,-20.35,-20.93,0,*7F
1520762812.77,543,11.25,72896.8,8.59,-20.49,-20.99,0,*76
1520762814.01,544,11.25,72896.3,8.59,-20.19,-20.73,0,*70
1520762815.25,545,11.25,72892.5,8.59,-20.83,-21.63,0,*72
1520762816.47,546,11.25,72902.3,8.59,-20.89,-21.47,0,*7D
1520762817.66,547,11.25,72902.3,8.57,-21.09,-21.63,0,*7D
1520762818.87,548,11.25,72896.5,8.57,-20.79,-21.39,0,*7B
1520762820.12,549,11.25,72898.8,8.59,-20.39,-20.99,0,*7B
1520762821.31,550,11.25,72898.3,8.57,-19.51,-20.09,0,*70
1520762822.56,551,11.25,72900.5,8.59,-20.39,-20.99,0,*72
1520762823.77,552,11.25,72900.8,8.57,-19.85,-20.43,0,*75
1520762825.02,553,11.25,72900.3,8.59,-20.39,-20.99,0,*70
1520762826.24,554,11.25,72900.5,8.59,-19.91,-20.39,0,*75
1520762827.48,555,11.25,72904.5,8.59,-19.81,-20.39,0,*75
1520762828.72,556,11.25,72906.0,8.63,-20.19,-20.69,0,*71
1520762829.97,557,11.25,72906.0,8.59,-20.53,-21.17,0,*7F
1520762831.18,558,11.25,72904.0,8.59,-18.99,-19.47,0,*73
1520762832.4,559,11.25,72908.3,8.59,-18.69,-19.17,0,*78
1520762833.66,560,11.25,72912.0,8.59,-18.89,-19.81,0,*73
1520762834.93,561,11.25,72912.3,8.63,-20.35,-20.83,0,*7F
1520762836.17,562,11.25,72912.5,8.63,-19.91,-20.49,0,*7E
1520762837.42,563,11.25,72914.3,8.63,-19.07,-19.61,0,*70
1520762838.69,564,11.25,72912.0,8.63,-18.93,-19.61,0,*7B
1520762839.96,565,11.25,72908.3,8.63,-19.23,-19.61,0,*70
1520762841.18,566,11.25,72912.0,8.67,-20.29,-20.89,0,*7B
1520762842.4,567,11.25,72910.0,8.67,-19.37,-19.99,0,*74
1520762843.62,568,11.25,72910.8,8.65,-21.27,-21.93,0,*72
1520762844.82,569,11.25,72910.8,8.65,-21.77,-22.53,0,*79
1520762846.06,570,11.25,72908.8,8.63,-21.43,-22.17,0,*70
1520762847.28,571,11.25,72910.3,8.63,-21.13,-21.77,0,*71
1520762848.52,572,11.25,72914.5,8.63,-20.93,-21.53,0,*7D
1520762849.76,573,11.25,72910.5,8.59,-20.05,-20.53,0,*7B
1520762850.99,574,11.25,72912.3,8.59,-19.91,-20.39,0,*77
1520762852.23,575,11.25,72910.3,8.59,-19.75,-20.35,0,*70
1520762853.48,576,11.25,72912.5,8.59,-19.81,-20.19,0,*76
1520762854.73,577,11.25,72916.3,8.59,-19.31,-19.91,0,*76
1520762856.0,578,11.25,72910.8,8.63,-19.85,-20.35,0,*7B
1520762857.24,579,11.25,72908.8,8.63,-20.79,-21.39,0,*7E
1520762858.48,580,11.25,72904.0,8.63,-20.83,-21.43,0,*70
1520762859.69,581,11.25,72908.8,8.63,-20.69,-21.39,0,*78
1520762860.97,582,11.25,72908.0,8.63,-21.23,-21.87,0,*71
1520762862.18,583,11.25,72906.3,8.59,-21.77,-22.37,0,*70
1520762863.4,584,11.25,72908.5,8.57,-20.69,-21.23,0,*71
1520762864.62,585,11.25,72912.3,8.57,-19.47,-19.85,0,*71
1520762865.84,586,11.25,72908.3,8.57,-19.13,-19.65,0,*7D
1520762867.06,587,11.25,72914.3,8.65,-18.65,-19.23,0,*7F
1520762868.3,588,11.25,72912.0,8.63,-18.93,-19.51,0,*7A
1520762869.54,589,11.25,72908.0,8.63,-20.99,-21.63,0,*70
1520762870.76,590,11.25,72908.3,8.63,-21.13,-21.77,0,*7E
1520762872.02,591,11.25,72908.3,8.63,-20.15,-20.79,0,*77
1520762873.24,592,11.25,72912.3,8.59,-21.47,-22.11,0,*77
1520762874.45,593,11.25,72912.5,8.57,-20.15,-20.59,0,*70
1520762875.67,594,11.25,72908.3,8.63,-20.59,-21.09,0,*7C
1520762876.89,595,11.25,72904.5,8.59,-20.63,-21.13,0,*76
1520762878.1,596,11.25,72906.0,8.57,-20.69,-21.33,0,*73
1520762879.34,597,11.25,72902.0,8.63,-20.93,-21.53,0,*76
1520762880.59,598,11.25,72906.0,8.57,-21.67,-22.31,0,*73
1520762881.81,599,11.25,72902.8,8.57,-21.73,-22.47,0,*76
1520762883.03,600,11.25,72902.0,8.57,-21.17,-21.97,0,*79
1520762884.24,601,11.25,72904.3,8.55,-21.47,-22.11,0,*72
1520762885.43,602,11.25,72900.5,8.53,-21.43,-22.03,0,*70
1520762886.65,603,11.25,72900.0,8.53,-21.09,-21.67,0,*7E
1520762887.9,604,11.25,72898.8,8.51,-20.59,-21.23,0,*7F
1520762889.17,605,11.25,72898.0,8.51,-20.79,-21.27,0,*78
1520762890.38,606,11.25,72896.5,8.53,-20.35,-20.93,0,*7F
1520762891.6,607,11.25,72900.0,8.53,-20.83,-21.43,0,*7F
1520762892.82,608,11.25,72902.5,8.53,-20.79,-21.39,0,*78
1520762894.03,609,11.25,72896.0,8.49,-20.35,-20.89,0,*70
1520762895.23,610,11.25,72902.8,8.53,-20.59,-21.13,0,*7B
1520762896.45,611,11.25,72898.0,8.53,-20.79,-21.43,0,*7D
1520762897.69,612,11.25,72898.3,8.51,-20.63,-21.23,0,*71
1520762898.91,613,11.25,72900.8,8.49,-20.93,-21.53,0,*71
1520762900.12,614,11.25,72898.8,8.51,-21.39,-22.03,0,*78
1520762901.33,615,11.25,72898.5,8.51,-21.39,-22.03,0,*79
1520762902.57,616,11.25,72896.0,8.49,-21.03,-21.57,0,*78
1520762903.82,617,11.25,72898.0,8.47,-22.17,-22.93,0,*7A
1520762905.04,618,11.25,72894.0,8.45,-23.13,-23.85,0,*74
1520762906.26,619,11.25,72894.8,8.45,-22.31,-22.97,0,*76
1520762907.47,620,11.25,72896.5,8.39,-22.73,-23.39,0,*74
1520762908.68,621,11.25,72900.5,8.39,-21.97,-22.53,0,*71
1520762909.91,622,11.25,72898.5,8.39,-21.57,-22.21,0,*7B
1520762911.15,623,11.25,72896.0,8.33,-21.43,-22.31,0,*74
1520762912.33,624,11.25,72896.5,8.35,-22.03,-22.57,0,*72
1520762913.58,625,11.25,72898.5,8.35,-21.53,-22.17,0,*71
1520762914.82,626,11.25,72898.0,8.33,-22.17,-22.83,0,*7A